Current Version              Previous Version:    01  02  03  04  05  06  07  08  09  10  11  12  13  14  15  16  17  18  19  20  21  22  23  24  25  26  27  28  29  30  
   31  32  33  34  35  36  37  38  39  40  41  42  43  44  45  46  47  48  49  50  51  52  53  54  55  56  57  58  59  60  

[Printable]
434
ASUS44 KLUB 172201
RWRTX
WEST TEXAS WEATHER ROUNDUP
NATIONAL WEATHER SERVICE LUBBOCK TX
400 PM CST WED DEC 17 2014

NOTE: "FAIR" INDICATES FEW OR NO CLOUDS BELOW 12,000 FEET WITH NO
SIGNIFICANT WEATHER AND/OR OBSTRUCTIONS TO VISIBILITY.

TXZ004-006>008-010-012-014-016-OKZ002-172300-
TEXAS PANHANDLE/OKLAHOMA PANHANDLE

CITY           SKY/WX    TMP DP  RH WIND       PRES   REMARKS
AMARILLO       CLOUDY    40  35  83 SE15      29.95F WCI  32
BORGER         PTSUNNY   41  34  76 S12       29.96F
DALHART        MOSUNNY   52  32  46 S13       29.89F
GUYMON         PTSUNNY   44  35  70 SE14      29.93S
HEREFORD       MOSUNNY   53  36  52 SW10      29.93F
$$

TXZ026-029-035-045-048-172300-
SOUTHERN PANHANDLE/SOUTH PLAINS/ROLLING PLAINS

CITY           SKY/WX    TMP DP  RH WIND       PRES   REMARKS
CHILDRESS      CLOUDY    40  38  93 E8        30.05S FOG     WCI  34
LUBBOCK        PTSUNNY   56  41  57 SE14      29.92F
$$

TXZ052-054-060>062-072-078-127-140-154-169-172300-
PERMIAN BASIN/CONCHO VALLEY/BIG COUNTRY/EDWARDS PLATEAU

CITY           SKY/WX    TMP DP  RH WIND       PRES   REMARKS
ABILENE        CLOUDY    51  40  65 S8        30.02S
JUNCTION       CLOUDY    51  50  96 E3        30.02S FOG
MIDLAND        SUNNY     65  35  33 SW15      29.95S
ODESSA         SUNNY     65  32  29 W16       29.96S
SAN ANGELO     CLOUDY    58  48  69 S10       29.99F
WINK           SUNNY     68  28  22 W23G33    29.94R
$$

TXZ055-058-074-075-080-082-172300-
FAR WEST/SOUTHWEST MOUNTAINS/TRANS PECOS

CITY           SKY/WX    TMP DP  RH WIND       PRES   REMARKS
DRYDEN           N/A     55  47  74 SE7       29.99R
EL PASO        MOSUNNY   61  29  29 W17       30.00S
FORT STOCKTON  SUNNY     65  36  34 VRB5      29.98R
MARFA          SUNNY     61  25  25 SW16G25   30.05S
$$

TXZ014-016-019-021>030-083-172300
TEXAS TECH WEST TEXAS MESONET/TEXAS PANHANDLE/NORTHERN SOUTH PLAINS

CITY           SKY/WX    TMP DP  RH WIND       PRES   REMARKS
ABERNATHY 5ENE   N/A     49  36  61 E10       29.96S
AMARILLO 9NNE    N/A     43  35  72 S9        29.94S
AMARILLO 7SSE    N/A     42  35  76 SE9       29.95S
AMHERST 1NE      N/A     57  36  46 SW13      29.92S
BOOTLEG 11WNW    N/A     50  32  48 SW14      29.93S
CANADIAN 6E      N/A     37  34  91 SE9       30.01R WCI  30
CAPROCK CYN SP   N/A     38  37  96 E8        30.00F WCI  33
CHILDRESS 2NNE LGT RAIN  38  37  97 SE9       30.04S WCI  32
CLARENDON 2WSW   N/A     37  35  91 SE10      29.99F WCI  30
CLAUDE 12SW      N/A     35  35  99 SE8       29.96S WCI  29
DIMMITT 2NE      N/A     50  34  53 S12       29.93S
FLOYDADA 2NNE    N/A     46  34  63 SE7       29.97S
FRIONA 2NE       N/A     51  36  55 S12       29.92F
GOODLETT 3W      N/A     39  38  94 E9        30.05S WCI  33
HART 3N          N/A     50  36  58 S8        29.94R
HEREFORD 2NW     N/A     52  33  49 S14       29.92F
MCLEAN 1E        N/A     35  35  98 SE13      29.98F WCI  27
MEMPHIS 1NE      N/A     39  37  91 E8        30.03S WCI  33
MULESHOE 2SSW    N/A     56  34  43 SW10      29.92S
OLTON 6S         N/A     50  37  60 E10       29.93S
PALO DURO SP     N/A     39  35  85 SE8       29.97S WCI  34
PAMPA 2E         N/A     35  35  99 SE15      29.97S WCI  25
PLAINVIEW 1S     N/A     48  36  64 SE8       29.94F
SILVERTON 7ESE   N/A     38  35  89 E9        29.98F WCI  32
TULIA 2ENE       N/A     45  37  72 S10       29.95S
UMBARGER 3NNE    N/A     48  32  53 S14       29.93F
$$

TXZ033>036-039>041-045>048-172300
TEXAS TECH WEST TEXAS MESONET/SOUTH PLAINS

CITY           SKY/WX    TMP DP  RH WIND       PRES   REMARKS
AIKEN 3WSW       N/A     46  35  67 SE10      29.96F
ANTON 6SSW       N/A     59  38  46 S13       29.91F
BROWNFIELD 2S    N/A     60  34  37 SW17      29.92F
DENVR CTY 7WNW   N/A     60  28  29 SW24      29.93R
GAIL 2ESE        N/A     57  46  67 S10       29.95F
LAMESA 2SE       N/A     61  42  49 SW13      29.95R
LEVELLAND 4S     N/A     60  34  37 SW12      29.92S
LUBBOCK 3WNW     N/A     59  41  51 S9        29.93F
MORTON 1ENE      N/A     58  35  42 SW12      29.92R
ODONNELL 1N      N/A     58  43  57 S10       29.94S
PLAINS 3N        N/A     60  32  33 SW23      29.92S
RALLS 1SE        N/A     47  35  63 SE7       29.98R
REESE CENTER     N/A     59  37  44 S12       29.92F
SEAGRAVES 1SW    N/A     62  31  31 SW23      29.92F
SEMINOLE 2NNE    N/A     63  32  31 W15       29.93F
SLATON 2NE       N/A     55  41  59 SE9       29.95S
SNYDER 3E        N/A     50  46  85 S8        29.98S
SUNDOWN 8SW      N/A     61  33  35 SW18      29.92S
TAHOKA 3NNE      N/A     58  43  58 S8        29.93F
WOLFFORTH 6SSW   N/A     61  37  41 SW15      29.92F
$$

TXZ031-032-036>038-042>044-172300-
TEXAS TECH WEST TEXAS MESONET/ROLLING PLAINS

CITY           SKY/WX    TMP DP  RH WIND       PRES   REMARKS
ASPERMONT 3NE    N/A     48  38  70 E7        30.01R
FLUVANNA 3WNW    N/A     50  46  85 SE9       29.96F
GRAHAM 5SSW      N/A     52  44  74 SE9       29.95S
GUTHRIE 10WSW    N/A     47  35  62 E6        30.00F
HASKELL 1NW      N/A     44  39  83 E9        30.02S
JAYTON 1SSE      N/A     51  39  65 SE2       30.00S
KNOX CITY 3NW    N/A     43  37  79 E8        30.04R
LK A HENRY 1NW   N/A     49  44  84 SE6       29.97F
NORTHFIELD 1S    N/A     41  38  90 E5        30.03R
ODELL 4ENE       N/A     38  37  97 E8        30.08R WCI  32
PADUCAH 10SW     N/A     43  36  78 E7        30.02F
POST 1NE         N/A     51  44  77 SE8       29.96S
RRING SPRGS 3N   N/A     44  37  77 SE6       30.00S
SEYMOUR 3NW      N/A     40  39  93 E10       30.06S WCI  34
SPUR 1W          N/A     47  41  77 SE5       29.98F
WHITE RVR 6NE    N/A     48  39  70 E8        29.97S
$$

TXZ052-054-060>062-072-078-127-140-154-169-172300-
TEXAS TECH WEST TEXAS MESONET/PERMIAN BASIN/
CONCHO VALLEY/BIG COUNTRY/EDWARDS PLATEAU

CITY           SKY/WX    TMP DP  RH WIND       PRES   REMARKS
COYANOSA 2N      N/A     67  36  32 W2        29.96F
JUNCTION 1SSW    N/A     52  51  96 CALM      30.03S
MERTZON 3NNE     N/A     58  48  68 S10       29.99F
SAN ANGELO 7NW   N/A     57  47  68 S7        29.99F
STRLNG CT 4WSW   N/A     60  48  64 S12       29.98S
ST LAWRNCE 5SW   N/A     60  44  57 S12       29.97S
SWEETWATR 11SW   N/A     50  42  71 S10       30.00R
WALL 1E          N/A     55  48  76 S9        30.01S
$$

TXZ055-058-074-075-080-082-172300-
TEXAS TECH WEST TEXAS MESONET/FAR WEST/SOUTHWEST MOUNTAINS/TRANS PECOS

CITY           SKY/WX    TMP DP  RH WIND       PRES   REMARKS
PRSMN GAP BBNP   N/A     65  43  44 E1        29.97S
$$